Regional Weather Roundup
Issued by NWS

Home | Current Version | Previous Version | Text Only | Print | Product List | Glossary Off
Versions: 1 2 3 4 5 6 7 8 9 10 11 12 13 14 15 16 17 18 19 20 21 22 23 24 25 26 27 28 29 30 31 32 33 34 35 36 37 38 39 40 41 42 43 44 45 46

000
ASUS45 KBOU 252010
RWRCO

WEATHER ROUNDUP FOR COLORADO
NATIONAL WEATHER SERVICE DENVER/BOULDER CO
100 PM MST SUN FEB 25 2018

NOTE: "FAIR" INDICATES FEW OR NO CLOUDS BELOW 12000 FEET WITH NO
SIGNIFICANT WEATHER AND/OR OBSTRUCTIONS TO VISIBILITY.

COZ001>005-013-030-031-252100-
...NORTHWEST COLORADO...

CITY           SKY/WX    TMP DP  RH WIND       PRES   REMARKS
CRAIG          FAIR      26   8  46 W16       30.07F WCI  14
HAYDEN         FAIR      26   8  46 W10       30.06S WCI  16
MEEKER         FAIR      28   4  35 W8        30.07F WCI  20
RANGELY        FAIR      31   7  37 W7        30.12F WCI  24
RABBIT EARS PA CLOUDY   N/A N/A N/A W14G29    29.83F FOG
STEAMBOAT SPGS FAIR      23   4  43 W10       30.04F WCI  12
WALDEN         FAIR      21  -2  35 SW22G30   29.93S WCI   5
$$

COZ006>008-011-252100-
...WEST CENTRAL VALLEYS...

CITY           SKY/WX    TMP DP  RH WIND       PRES   REMARKS
GRAND JUNCTION PTSUNNY   36   8  31 W10       30.13F
MONTROSE       PTSUNNY   32  11  41 CALM      30.14F
EAGLE          FAIR      29   6  38 SW25G32   30.08S WCI  14
RIFLE          FAIR      31   9  39 W15       30.11F WCI  20
DELTA          FAIR      37   8  29 W6        30.14F
NUCLA          FAIR      32  10  40 CALM      30.17F
$$

COZ017>023-064>068-252100-
...SOUTHWEST COLORADO...

CITY           SKY/WX    TMP DP  RH WIND       PRES   REMARKS
DURANGO        FAIR      34   6  31 W24G30    30.05F WCI  21
CORTEZ         FAIR      37   3  24 NW10      30.12F
PAGOSA SPRINGS FAIR      31  -4  22 CALM      30.03F
TELLURIDE      FAIR      21  -3  34 W8        30.06F WCI  11
WOLF CREEK PAS   N/A      9   5  85 SW15G23   29.97S WCI  -8
$$

COZ009-010-012-014-032>034-037-058>063-252100-
...CENTRAL COLORADO...

CITY           SKY/WX    TMP DP  RH WIND       PRES   REMARKS
ASPEN          PTSUNNY   23   6  48 NE8       30.02S WCI  14
BUENA VISTA    FAIR      29  -8  19 SW16G33   29.91F WCI  18
COPPER MTN     PTSUNNY    9  -4  56 W26G35    29.84R HAZE    WCI -13
BERTHOUD PASS  SNOW      -2 -13  60 NW39G54   29.72R VSB 1/4 WCI -32
COTTONWOOD PAS PTSUNNY   23  -4  30 SW23G40   29.87S WCI   7
GUNNISON       FAIR      24   5  44 SW14G21   30.04S WCI  12
GRANBY         CLOUDY    20   4  48 SW15G22   29.97S WCI   6
KREMMLING      CLOUDY    34   1  25 W16G24    30.01S WCI  23
LEADVILLE      MIX PCPN  14  -4  44 N15G29    29.91R WCI  -1
MONARCH PASS   FAIR       3   0  85 W58G74    29.88R FOG     WCI -28
SALIDA         FAIR      32  -6  20 W21G35    30.01S WCI  19
SUNLIGHT       FAIR      10   5  79 SW9G21    30.00  HAZE    WCI  -2
WILKERSON PASS FAIR      14  -9  34 W12G18    29.82R WCI   0
$$

COZ069>075-252100-
...SAN LUIS VALLEY/SANGRE DE CRISTO MOUNTAINS...

CITY           SKY/WX    TMP DP  RH WIND       PRES   REMARKS
ALAMOSA        FAIR      32  -7  18 NW16G24   29.99R WCI  21
DEL NORTE      FAIR      30  -5  22 W21G26    29.98F WCI  18
LA VETA PASS   FAIR      23  -4  30 SW18G33   29.99S WCI   9
SAGUACHE       FAIR      28  -6  22 NW35G46   29.99S WCI  12
$$

COZ035-036-038>040-252100-
...NORTHERN COLORADO FRONT RANGE...

CITY           SKY/WX    TMP DP  RH WIND       PRES   REMARKS
DENVER INTL AP FAIR      38   0  20 W20G28    29.87F
AURORA         MOSUNNY   37  -1  20 W18       29.87F
FRONT RANGE AP MOSUNNY   39  -2  17 SW14G24   29.89F
ERIE MUNI ARPT FAIR      38  -1  19 NW5       29.93S
BOULDER MUN AP FAIR      37   3  23 W7        29.86S
CENTENNIAL     FAIR      36   2  23 NW16G24   29.87F
BROOMFIELD     MOSUNNY   36   7  30 W25G31    29.87F
FORT COLLINS   FAIR      34   9  35 E13       29.87F WCI  25
LONGMONT       FAIR      44   2  18 CALM      29.87F
$$

COZ041-046-047-076>085-087-088-252100-
...PIKES PEAK/PALMER DIVIDE AND SOUTHERN FOOTHILLS...

CITY           SKY/WX    TMP DP  RH WIND       PRES   REMARKS
COLO. SPRINGS  FAIR      37  -6  16 NW18G26   29.89F
A. F. ACADEMY  FAIR      36  -8  15 NW21G31   29.86F
SCHRIEVER AFB  NOT AVBL
CHEYENNE MTN   FAIR      32  -7  18 N12G18    29.82F WCI  23
ELLICOTT         N/A    N/A N/A N/A NW13G18   29.90F
FALCON         FAIR      35 -11  13 W16G22    29.89F WCI  25
FORT CARSON    MOSUNNY   39 -10  12 NE9       29.89F
LIMON          FAIR      39 -11  11 W14G29    29.90F
MONUMENT HILL  FAIR      32  -6  19 W20G26    29.88F WCI  20
CANON CITY     SUNNY     45  -2  14 W14G26    29.91F
WALSENBURG     NOT AVBL
TRINIDAD       FAIR      42  -8  12 NW21G33   29.94F
$$

COZ042>045-048>051-090-091-252100-
...NORTHEAST COLORADO...

CITY           SKY/WX    TMP DP  RH WIND       PRES   REMARKS
GREELEY ARPT   FAIR      39   4  23 S6        29.90F
AKRON          FAIR      40   2  20 NW24G36   29.89F
BURLINGTON     FAIR      43   5  20 W15G26    29.93F
WRAY           FAIR      45   3  18 W21G29    29.92F
YUMA           NOT AVBL
STERLING       FAIR      41   3  20 NW26G35   29.89S
HOLYOKE        FAIR      45   3  18 NW17G25   29.90F
FORT MORGAN    FAIR      41  -3  15 W13       29.91F
$$

COZ086-089-092>099-252100-
...SOUTHEAST COLORADO...

CITY           SKY/WX    TMP DP  RH WIND       PRES   REMARKS
PUEBLO         FAIR      44  -1  15 W15G26    29.93F
LA JUNTA       FAIR      47   3  16 NW13G20   29.95F
LAMAR          FAIR      48   5  17 NW15      29.95F
SPRINGFIELD      N/A     46  -2  13 NW18G25   29.95F
$$




USA.gov is the U.S. government's official web portal to all federal, state and local government web resources and services.